Weather History for South Bend, IN

Change the Weather History Date:

Tuesday, May 7, 2013

  Actual Average Record
Temperature  
Mean Temperature 62 °F 56 °F  
Max Temperature 77 °F 67 °F 87 °F (1926)
Min Temperature 47 °F 46 °F 28 °F (1989)
Degree Days  
Heating Degree Days 3 9  
Month to date heating degree days 13 71  
Since 1 July heating degree days 5968 6102  
Cooling Degree Days 0 1  
Month to date cooling degree days 9 5  
Year to date cooling degree days 14 15  
Growing Degree Days 12 (Base 50)    
Moisture  
Dew Point 46 °F    
Average Humidity 61    
Maximum Humidity 86    
Minimum Humidity 36    
Precipitation  
Precipitation 0.00 in 0.11 in 1.25 in (1931)
Month to date precipitation 0.01 0.81  
Year to date precipitation 14.06 10.70  
Snow  
Snow 0.00 in - - ()
Month to date snowfall 0.0  
Snow Depth 0.00 in    
Sea Level Pressure  
Sea Level Pressure 30.01 in    
Wind  
Wind Speed 4 mph (NNE)    
Max Wind Speed 13 mph    
Max Gust Speed 17 mph    
Visibility 10 miles    
Events      
T = Trace of Precipitation, MM = Missing Value Source: NWS Daily Summary

Daily Weather History Graph

Daily Weather History Graph

Search for Another Location

Airport:

Trip Planner

Search our weather history database for the weather conditions in past years. The results will help you decide how hot, cold, wet, or windy it might be!

Date:

Astronomy

May. 07, 2013 Rise Set
Actual Time 6:34 AM EDT 8:50 PM EDT
Civil Twilight 6:03 AM EDT 9:21 PM EDT
Nautical Twilight 5:25 AM EDT 9:59 PM EDT
Astronomical Twilight 4:43 AM EDT 10:41 PM EDT
Moon 5:09 AM EDT (5/7) 6:48 PM EDT (5/7)
Length of Visible Light 15h 18m
Length of Day
14h 16m
Waning Crescent, 5% of the Moon is Illuminated
May 7
Waning Crescent
May 9
New
May 18
First Quarter
May 25
Full
May 31
Last Quarter

Hourly Weather History & Observations

Time (EDT) Temp. Dew Point Humidity Pressure Visibility Wind Dir Wind Speed Gust Speed Precip Events Conditions
12:54 AM 52.0 °F 43.0 °F 71% 30.01 in 10.0 mi Calm Calm - N/A   Clear
1:54 AM 52.0 °F 42.1 °F 69% 30.00 in 10.0 mi Calm Calm - N/A   Partly Cloudy
2:54 AM 50.0 °F 43.0 °F 77% 30.00 in 10.0 mi Calm Calm - N/A   Clear
3:54 AM 50.0 °F 43.0 °F 77% 29.99 in 10.0 mi Calm Calm - N/A   Clear
4:54 AM 48.9 °F 43.0 °F 80% 30.00 in 10.0 mi Calm Calm - N/A   Clear
5:54 AM 48.2 °F 44.6 °F 87% 30.01 in 10.0 mi Calm Calm - N/A   Mostly Cloudy
6:54 AM 52.0 °F 45.0 °F 77% 30.02 in 10.0 mi Calm Calm - N/A   Clear
7:54 AM 57.0 °F 46.9 °F 69% 30.02 in 10.0 mi Calm Calm - N/A   Clear
8:54 AM 62.1 °F 46.9 °F 58% 30.04 in 10.0 mi ESE 5.8 mph - N/A   Clear
9:54 AM 66.9 °F 50.0 °F 54% 30.04 in 10.0 mi Calm Calm - N/A   Clear
10:54 AM 70.0 °F 51.1 °F 51% 30.04 in 10.0 mi East 3.5 mph - N/A   Clear
11:54 AM 73.9 °F 52.0 °F 46% 30.02 in 10.0 mi East 8.1 mph - N/A   Clear
12:54 PM 75.9 °F 51.1 °F 42% 30.01 in 10.0 mi NE 5.8 mph - N/A   Mostly Cloudy
1:54 PM 73.9 °F 48.9 °F 41% 30.01 in 10.0 mi NE 9.2 mph - N/A   Mostly Cloudy
2:54 PM 73.9 °F 46.0 °F 37% 30.00 in 10.0 mi ENE 5.8 mph - N/A   Partly Cloudy
3:54 PM 75.9 °F 46.9 °F 36% 29.99 in 10.0 mi Variable 6.9 mph - N/A   Mostly Cloudy
4:54 PM 73.0 °F 48.0 °F 41% 29.98 in 10.0 mi Variable 4.6 mph - N/A   Overcast
5:54 PM 71.1 °F 48.0 °F 44% 29.99 in 10.0 mi North 10.4 mph - N/A   Overcast
6:54 PM 69.1 °F 48.9 °F 49% 29.99 in 10.0 mi North 4.6 mph - N/A   Overcast
7:54 PM 69.1 °F 48.0 °F 47% 29.99 in 10.0 mi NNW 5.8 mph - N/A   Overcast
8:54 PM 66.9 °F 46.0 °F 47% 30.00 in 10.0 mi NNW 9.2 mph - N/A   Overcast
9:54 PM 64.0 °F 43.0 °F 46% 30.01 in 10.0 mi North 8.1 mph - N/A   Overcast
10:54 PM 62.1 °F 44.1 °F 52% 30.02 in 10.0 mi North 3.5 mph - N/A   Overcast
11:54 PM 62.1 °F 44.1 °F 52% 30.02 in 10.0 mi Calm Calm - N/A   Overcast